TimeCST,TemperatureF,Dew PointF,Humidity,Sea Level PressureIn,VisibilityMPH,Wind Direction,Wind SpeedMPH,Gust SpeedMPH,PrecipitationIn,Events,Conditions,WindDirDegrees,DateUTC
12:56 AM,16.0,12.0,84,30.28,10.0,NNW,13.8,-,N/A,,Clear,340,2013-02-28 06:56:00
1:56 AM,15.1,10.9,84,30.30,10.0,NNW,12.7,-,N/A,,Clear,340,2013-02-28 07:56:00
2:56 AM,14.0,10.0,84,30.31,10.0,NNW,11.5,-,N/A,,Clear,330,2013-02-28 08:56:00
3:56 AM,12.9,9.0,84,30.31,10.0,NNW,11.5,-,N/A,,Clear,330,2013-02-28 09:56:00
4:45 AM,14.0,10.4,86,30.24,10.0,NNW,12.7,-,N/A,,Mostly Cloudy,330,2013-02-28 10:45:00
4:56 AM,14.0,10.0,84,30.32,10.0,NNW,13.8,-,N/A,,Overcast,340,2013-02-28 10:56:00
5:56 AM,14.0,10.0,84,30.32,10.0,North,11.5,-,N/A,,Overcast,350,2013-02-28 11:56:00
6:42 AM,14.0,10.4,86,30.24,10.0,NNW,10.4,-,N/A,,Overcast,330,2013-02-28 12:42:00
6:56 AM,15.1,10.9,84,30.34,10.0,NNW,12.7,-,0.00,,Overcast,340,2013-02-28 12:56:00
7:56 AM,17.1,12.9,84,30.34,10.0,North,9.2,-,N/A,,Overcast,350,2013-02-28 13:56:00
8:29 AM,17.6,12.2,79,30.25,10.0,NNW,10.4,-,N/A,,Overcast,340,2013-02-28 14:29:00
8:56 AM,18.0,14.0,84,30.35,10.0,NNW,9.2,-,N/A,,Overcast,330,2013-02-28 14:56:00
9:56 AM,19.9,16.0,85,30.35,10.0,NNW,8.1,-,N/A,,Overcast,340,2013-02-28 15:56:00
10:56 AM,21.9,17.1,82,30.35,10.0,North,9.2,-,N/A,,Overcast,360,2013-02-28 16:56:00
11:56 AM,24.1,18.0,77,30.35,10.0,North,9.2,-,N/A,,Overcast,360,2013-02-28 17:56:00
12:56 PM,24.1,18.0,77,30.35,10.0,North,10.4,-,N/A,,Overcast,10,2013-02-28 18:56:00
1:56 PM,24.1,18.0,77,30.33,10.0,North,12.7,-,N/A,,Overcast,360,2013-02-28 19:56:00
2:56 PM,24.1,18.0,77,30.32,10.0,NNW,12.7,-,N/A,,Overcast,340,2013-02-28 20:56:00
3:56 PM,24.1,17.1,75,30.33,10.0,NNW,9.2,-,N/A,,Overcast,340,2013-02-28 21:56:00
4:31 PM,24.8,17.6,74,30.24,10.0,North,10.4,-,N/A,,Overcast,350,2013-02-28 22:31:00
4:56 PM,24.1,18.0,77,30.33,10.0,North,10.4,-,N/A,,Overcast,350,2013-02-28 22:56:00
5:56 PM,23.0,17.1,78,30.34,10.0,NNW,9.2,-,N/A,,Overcast,340,2013-02-28 23:56:00
6:54 PM,19.4,15.8,86,30.26,10.0,NNW,8.1,-,N/A,,Scattered Clouds,340,2013-03-01 00:54:00
6:56 PM,19.0,14.0,81,30.35,10.0,NNW,8.1,-,N/A,,Scattered Clouds,340,2013-03-01 00:56:00
7:48 PM,15.8,12.2,86,30.28,10.0,NW,8.1,-,N/A,,Mostly Cloudy,320,2013-03-01 01:48:00
7:56 PM,16.0,12.0,84,30.37,10.0,NNW,6.9,-,N/A,,Mostly Cloudy,330,2013-03-01 01:56:00
8:29 PM,14.0,10.4,86,30.28,10.0,NW,4.6,-,N/A,,Scattered Clouds,320,2013-03-01 02:29:00
8:56 PM,12.0,9.0,88,30.38,10.0,NNW,6.9,-,N/A,,Scattered Clouds,340,2013-03-01 02:56:00
9:56 PM,8.1,5.0,87,30.37,10.0,North,6.9,-,N/A,,Clear,10,2013-03-01 03:56:00
10:56 PM,6.1,3.0,87,30.37,10.0,North,8.1,-,N/A,,Clear,10,2013-03-01 04:56:00
11:56 PM,6.1,3.0,87,30.38,10.0,NW,5.8,-,N/A,,Clear,320,2013-03-01 05:56:00